TimeCDT,TemperatureF,Dew PointF,Humidity,Sea Level PressureIn,VisibilityMPH,Wind Direction,Wind SpeedMPH,Gust SpeedMPH,PrecipitationIn,Events,Conditions,WindDirDegrees,DateUTC
12:53 AM,57.9,55.0,90,29.94,10.0,Calm,Calm,-,N/A,,Clear,0,2012-10-20 05:53:00
1:53 AM,55.0,53.1,93,29.96,1.8,Calm,Calm,-,N/A,,Clear,0,2012-10-20 06:53:00
2:03 AM,53.6,51.8,94,29.96,3.0,Calm,Calm,-,N/A,,Clear,0,2012-10-20 07:03:00
2:53 AM,54.0,52.0,93,29.95,10.0,Calm,Calm,-,N/A,,Clear,0,2012-10-20 07:53:00
3:53 AM,52.0,51.1,97,29.95,10.0,Calm,Calm,-,N/A,,Clear,0,2012-10-20 08:53:00
4:53 AM,51.1,50.0,96,29.96,10.0,Calm,Calm,-,N/A,,Clear,0,2012-10-20 09:53:00
5:08 AM,51.8,50.0,94,29.96,0.8,Calm,Calm,-,N/A,,Mist,0,2012-10-20 10:08:00
5:16 AM,51.8,51.8,100,29.96,1.2,Calm,Calm,-,N/A,,Partly Cloudy,0,2012-10-20 10:16:00
5:25 AM,51.8,50.0,94,29.97,0.8,Calm,Calm,-,N/A,,Mist,0,2012-10-20 10:25:00
5:33 AM,51.8,50.0,94,29.97,1.2,Calm,Calm,-,N/A,,Partly Cloudy,0,2012-10-20 10:33:00
5:36 AM,51.8,48.2,88,29.97,4.0,Calm,Calm,-,N/A,,Partly Cloudy,0,2012-10-20 10:36:00
5:53 AM,51.1,50.0,96,29.97,1.5,Calm,Calm,-,N/A,,Clear,0,2012-10-20 10:53:00
5:58 AM,50.0,48.2,94,29.97,0.8,Calm,Calm,-,N/A,,Mist,0,2012-10-20 10:58:00
6:11 AM,50.0,48.2,94,29.97,0.2,Calm,Calm,-,N/A,Fog,Fog,0,2012-10-20 11:11:00
6:31 AM,51.8,50.0,94,29.97,0.8,Calm,Calm,-,N/A,,Mist,0,2012-10-20 11:31:00
6:34 AM,51.8,50.0,94,29.97,10.0,Calm,Calm,-,N/A,,Clear,0,2012-10-20 11:34:00
6:53 AM,50.0,48.9,96,29.97,10.0,Calm,Calm,-,N/A,,Clear,0,2012-10-20 11:53:00
7:04 AM,50.0,48.2,94,29.97,1.8,Calm,Calm,-,N/A,,Clear,0,2012-10-20 12:04:00
7:13 AM,48.2,48.2,100,29.98,10.0,Calm,Calm,-,N/A,,Clear,0,2012-10-20 12:13:00
7:53 AM,51.1,48.9,92,29.98,10.0,Calm,Calm,-,N/A,,Clear,0,2012-10-20 12:53:00
8:53 AM,61.0,52.0,72,30.00,10.0,Calm,Calm,-,N/A,,Clear,0,2012-10-20 13:53:00
9:53 AM,69.1,50.0,51,30.01,10.0,Calm,Calm,-,N/A,,Clear,0,2012-10-20 14:53:00
10:53 AM,73.9,46.9,38,30.01,10.0,Calm,Calm,-,N/A,,Clear,0,2012-10-20 15:53:00
11:53 AM,78.1,42.1,28,30.01,10.0,Calm,Calm,-,N/A,,Clear,0,2012-10-20 16:53:00
12:53 PM,80.1,37.0,21,29.99,10.0,Variable,3.5,-,N/A,,Clear,0,2012-10-20 17:53:00
1:53 PM,82.0,37.9,21,29.96,10.0,Variable,4.6,-,N/A,,Clear,0,2012-10-20 18:53:00
2:53 PM,82.0,39.0,22,29.94,10.0,South,5.8,-,N/A,,Clear,170,2012-10-20 19:53:00
3:53 PM,82.9,39.0,21,29.93,10.0,South,3.5,-,N/A,,Clear,180,2012-10-20 20:53:00
4:53 PM,82.0,42.1,24,29.92,10.0,SSW,9.2,-,N/A,,Clear,200,2012-10-20 21:53:00
5:53 PM,77.0,45.0,32,29.93,10.0,South,8.1,-,N/A,,Clear,190,2012-10-20 22:53:00
6:53 PM,70.0,55.0,59,29.94,10.0,South,3.5,-,N/A,,Clear,170,2012-10-20 23:53:00
7:53 PM,64.9,59.0,81,29.95,10.0,Calm,Calm,-,N/A,,Clear,0,2012-10-21 00:53:00
8:53 PM,63.0,59.0,87,29.96,10.0,SSE,3.5,-,N/A,,Clear,160,2012-10-21 01:53:00
9:53 PM,62.1,57.9,86,29.97,10.0,Calm,Calm,-,N/A,,Clear,0,2012-10-21 02:53:00
10:53 PM,59.0,55.9,90,29.97,10.0,Calm,Calm,-,N/A,,Clear,0,2012-10-21 03:53:00
11:53 PM,57.9,55.0,90,29.98,10.0,Calm,Calm,-,N/A,,Clear,0,2012-10-21 04:53:00